THOR ABLESTAR DEB, 3740

Orbit data source: Space-Track

THOR ABLESTAR DEB, 3740 is space debris in LEO originally from a launch on Thu, 29 Jun 1961 UTC launched from the Air Force Eastern Test Range (AFETR). Debris objects in space refer to the collection of defunct objects orbiting the Earth. Examples of debris include non-operational satellites, rocket bodies, and fragments generated from explosions, collisions, or faulty payload assembly.

Loading next visibility...
Identifier
3740, 1961-015JB
Orbit
LEO
Country
Flag of USUS
Related business
Manufacturer
Unknown
Mission
Spacecraft
Bus & Motor
Unknown
Mass
Unknown
Launch date (UTC)
1961-06-29 (64 years ago)
Launch vehicle
Unknown
Launch site
Air Force Eastern Test Range (AFETR)
Object type
Payload
Rocket body
Debris
Shape & HBR
Unknown shape, 0.1 m
Radar Cross Section
Small (<0.1 m²)

Expand to show TLE details & history
Last TLE update: 1 day ago

TLE from 1 day ago
0 THOR ABLESTAR DEB
1 03740U 61015JB  25349.50341763  .00000600  00000-0  36094-3 0  9990
2 03740  66.3318 162.3311 0081308 145.6766 214.9612 14.12198097296098
Epoch: 2025-12-15T12:04Z
TLE epoch observation values (Epoch: 2025-12-15T12:04:55.283Z)
Latitude
-0.00002°
Longitude
-103.3003°
Altitude
902.259 km
Speed
7.377 km/s
True Right ascension
10h 49m 19s
True Declination
0° 00' 00"
Sunlit
Object was in daylight at epoch
Visualization orbit readout
Latitude
Unknown
Longitude
Unknown
Altitude
Unknown
Speed
Unknown
Apparent Right ascension
Unknown
Apparent Declination
Unknown
Sunlit
N/A
Visualization observer readout
Local Sidereal Time
17:49:25
Azimuth
Unknown
Elevation
Unknown
Doppler factor
Unknown
Orbital elements
Apogee altitude
909.064 km
Perigee altitude
791.518 km
Semi-major axis
7,228.428 km
Eccentricity
0.00813
Inclination
66.3318°
RAAN
162.3311°
Arg. of periapsis
145.6766°
True anomaly
214.43172°
Mean anomaly
214.9612°
Eccentric anomaly
214.69602°
Mean motion
3.53165 °/min
Orbital period
101.94 mins
BSTAR
0.00036094

Documentation

Showing up to 5 results
|